| time (UTC) | temp F | wind direction | speed MPH | gust MPH | rain 1hr in | rain 24hr in | rain mn in | humidity % | barometer mb |
| 20260510221117 | 69 | 232 | 2.0 | 6.0 | 0.00 | 0.61 | 0.00 | 89 | 1019.3 |
| 20260510220138 | 68 | 274 | 2.0 | 6.0 | 0.00 | 0.68 | 0.00 | 89 | 1019.4 |
| 20260510220043 | 67 | 294 | 4.0 | 9.0 | 0.00 | 0.69 | 0.00 | 88 | 1019.4 |
| 20260510215117 | 68 | 246 | 2.0 | 5.0 | 0.00 | 0.77 | 0.00 | 88 | 1019.5 |
| 20260510214551 | 67 | 274 | 1.0 | 8.0 | 0.00 | 0.77 | 0.00 | 88 | 1019.7 |
| 20260510214116 | 68 | 254 | 2.0 | 4.0 | 0.00 | 0.77 | 0.00 | 89 | 1019.8 |
| 20260510213117 | 67 | 226 | 2.0 | 6.0 | 0.00 | 0.77 | 0.00 | 85 | 1019.8 |
| 20260510213046 | 67 | 236 | 2.0 | 6.0 | 0.00 | 0.77 | 0.00 | 85 | 1019.8 |
| 20260510212117 | 67 | 225 | 1.0 | 4.0 | 0.00 | 0.77 | 0.00 | 87 | 1019.8 |
| 20260510211541 | 67 | 0 | 1.0 | 5.0 | 0.00 | 0.77 | 0.00 | 88 | 1019.8 |
| 20260510211117 | 67 | 302 | 2.0 | 3.0 | 0.00 | 0.77 | 0.00 | 88 | 1019.9 |
| 20260510210117 | 67 | 224 | 2.0 | 3.0 | 0.00 | 0.77 | 0.00 | 87 | 1019.9 |
| 20260510210042 | 66 | 232 | 1.0 | 5.0 | 0.00 | 0.77 | 0.00 | 87 | 1019.8 |
| 20260510205116 | 67 | 241 | 0.0 | 1.0 | 0.00 | 0.77 | 0.00 | 88 | 1019.9 |
| 20260510204555 | 67 | 317 | 0.0 | 4.0 | 0.00 | 0.77 | 0.00 | 87 | 1019.9 |
| 20260510204118 | 67 | 220 | 2.0 | 4.0 | 0.00 | 0.77 | 0.00 | 88 | 1020.0 |
| 20260510203119 | 67 | 224 | 2.0 | 3.0 | 0.00 | 0.77 | 0.00 | 88 | 1019.9 |
| 20260510203044 | 67 | 236 | 1.0 | 3.0 | 0.00 | 0.77 | 0.00 | 88 | 1019.9 |
| 20260510202119 | 67 | 226 | 1.0 | 2.0 | 0.00 | 0.77 | 0.00 | 88 | 1020.1 |
| 20260510201544 | 66 | 286 | 1.0 | 6.0 | 0.00 | 0.77 | 0.00 | 89 | 1020.1 |
| 20260510201140 | 67 | 217 | 1.0 | 2.0 | 0.00 | 0.77 | 0.00 | 88 | 1020.0 |
| 20260510200119 | 66 | 251 | 2.0 | 5.0 | 0.00 | 0.77 | 0.00 | 89 | 1020.0 |
| 20260510200041 | 66 | 246 | 1.0 | 5.0 | 0.00 | 0.77 | 0.00 | 89 | 1019.9 |
| 20260510195119 | 65 | 292 | 1.0 | 2.0 | 0.00 | 0.77 | 0.00 | 89 | 1020.1 |
| 20260510194539 | 65 | 265 | 1.0 | 3.0 | 0.00 | 0.77 | 0.00 | 89 | 1020.0 |
| 20260510194139 | 65 | 228 | 1.0 | 3.0 | 0.00 | 0.77 | 0.00 | 91 | 1020.1 |
| 20260510193119 | 64 | 315 | 1.0 | 1.0 | 0.00 | 0.77 | 0.00 | 92 | 1019.9 |
| 20260510193046 | 64 | 315 | 0.0 | 2.0 | 0.00 | 0.77 | 0.00 | 92 | 1019.8 |
| 20260510192118 | 64 | 248 | 0.0 | 1.0 | 0.00 | 0.77 | 0.00 | 93 | 1020.0 |
| 20260510191542 | 63 | 0 | 0.0 | 2.0 | 0.00 | 0.77 | 0.00 | 92 | 1019.8 |
| 20260510191119 | 64 | 303 | 0.0 | 1.0 | 0.00 | 0.77 | 0.00 | 92 | 1019.8 |
| 20260510190119 | 64 | 311 | 0.0 | 2.0 | 0.00 | 0.77 | 0.00 | 90 | 1019.8 |
| 20260510190041 | 64 | 0 | 1.0 | 3.0 | 0.00 | 0.77 | 0.00 | 90 | 1019.8 |
| 20260510185117 | 65 | 312 | 2.0 | 3.0 | 0.00 | 0.77 | 0.00 | 89 | 1019.7 |
| 20260510184545 | 65 | 340 | 0.0 | 3.0 | 0.00 | 0.77 | 0.00 | 87 | 1019.5 |
| 20260510184119 | 66 | 261 | 0.0 | 1.0 | 0.00 | 0.77 | 0.00 | 86 | 1019.6 |
| 20260510183118 | 66 | 315 | 0.0 | 3.0 | 0.00 | 0.77 | 0.00 | 85 | 1019.6 |
| 20260510183041 | 65 | 0 | 1.0 | 3.0 | 0.00 | 0.77 | 0.00 | 85 | 1019.6 |
| 20260510182201 | 65 | 1 | 1.0 | 2.0 | 0.00 | 0.77 | 0.00 | 84 | 1019.7 |
| 20260510181559 | 65 | 270 | 1.0 | 4.0 | 0.00 | 0.77 | 0.00 | 85 | 1019.8 |
| 20260510181119 | 66 | 312 | 1.0 | 2.0 | 0.00 | 0.77 | 0.00 | 86 | 1019.7 |
| 20260510180118 | 66 | 327 | 1.0 | 2.0 | 0.00 | 0.77 | 0.00 | 85 | 1019.7 |
| 20260510175119 | 64 | 78 | 0.0 | 1.0 | 0.00 | 0.77 | 0.00 | 86 | 1019.5 |
| 20260510174542 | 63 | 0 | 0.0 | 1.0 | 0.00 | 0.77 | 0.00 | 86 | 1019.5 |
| 20260510174119 | 62 | 0.0 | 0.0 | 0.00 | 0.77 | 0.00 | 89 | 1019.5 | |
| 20260510173118 | 61 | 0.0 | 0.0 | 0.00 | 0.77 | 0.00 | 91 | 1019.5 | |
| 20260510173041 | 60 | 0 | 0.0 | 1.0 | 0.00 | 0.77 | 0.00 | 90 | 1019.5 |
| 20260510172438 | 60 | 0.0 | 0.0 | 0.00 | 0.77 | 0.00 | 92 | 1019.3 | |
| 20260510171547 | 59 | 0 | 0.0 | 2.0 | 0.00 | 0.77 | 0.00 | 92 | 1019.1 |
| 20260510171418 | 59 | 111 | 1.0 | 1.0 | 0.00 | 0.77 | 0.00 | 92 | 1019.1 |
| 20260510170417 | 59 | 98 | 1.0 | 2.0 | 0.00 | 0.77 | 0.00 | 92 | 1019.1 |
| 20260510170040 | 58 | 119 | 1.0 | 2.0 | 0.00 | 0.77 | 0.00 | 91 | 1019.0 |
| 20260510165438 | 58 | 114 | 2.0 | 2.0 | 0.00 | 0.77 | 0.00 | 91 | 1019.2 |
| 20260510164546 | 58 | 98 | 1.0 | 3.0 | 0.00 | 0.77 | 0.00 | 89 | 1019.2 |
| 20260510164438 | 58 | 104 | 1.0 | 2.0 | 0.00 | 0.77 | 0.00 | 90 | 1019.2 |
| 20260510163417 | 58 | 95 | 2.0 | 3.0 | 0.00 | 0.77 | 0.00 | 90 | 1018.8 |
| 20260510163045 | 57 | 103 | 2.0 | 4.0 | 0.00 | 0.77 | 0.00 | 90 | 1018.7 |
| 20260510162417 | 58 | 98 | 3.0 | 3.0 | 0.00 | 0.77 | 0.00 | 89 | 1018.7 |
| 20260510161544 | 57 | 103 | 1.0 | 3.0 | 0.00 | 0.77 | 0.00 | 89 | 1018.6 |
| 20260510161417 | 58 | 104 | 2.0 | 2.0 | 0.00 | 0.77 | 0.00 | 89 | 1018.6 |
| 20260510160417 | 57 | 102 | 2.0 | 3.0 | 0.00 | 0.77 | 0.00 | 91 | 1018.8 |
| 20260510160041 | 57 | 118 | 2.0 | 3.0 | 0.00 | 0.77 | 0.00 | 90 | 1018.8 |
| 20260510155438 | 58 | 107 | 2.0 | 3.0 | 0.00 | 0.77 | 0.00 | 90 | 1018.8 |
| 20260510154540 | 57 | 110 | 2.0 | 3.0 | 0.00 | 0.77 | 0.00 | 91 | 1018.7 |
| 20260510154417 | 57 | 112 | 3.0 | 3.0 | 0.00 | 0.77 | 0.00 | 91 | 1018.8 |
| 20260510153417 | 58 | 102 | 1.0 | 2.0 | 0.00 | 0.77 | 0.00 | 91 | 1018.6 |
| 20260510153049 | 57 | 100 | 2.0 | 4.0 | 0.00 | 0.77 | 0.00 | 90 | 1018.5 |
| 20260510152417 | 58 | 101 | 2.0 | 3.0 | 0.00 | 0.77 | 0.00 | 91 | 1018.6 |
| 20260510151545 | 58 | 94 | 1.0 | 3.0 | 0.00 | 0.77 | 0.00 | 90 | 1018.5 |
| 20260510151417 | 59 | 105 | 2.0 | 3.0 | 0.00 | 0.77 | 0.00 | 90 | 1018.5 |
| 20260510150417 | 58 | 47 | 1.0 | 2.0 | 0.00 | 0.77 | 0.00 | 92 | 1018.4 |
| 20260510150103 | 58 | 0 | 1.0 | 3.0 | 0.00 | 0.77 | 0.00 | 90 | 1018.4 |
| 20260510145417 | 58 | 118 | 1.0 | 3.0 | 0.00 | 0.77 | 0.00 | 91 | 1018.3 |
| 20260510144541 | 57 | 115 | 2.0 | 4.0 | 0.00 | 0.77 | 0.00 | 90 | 1018.2 |
| 20260510144438 | 58 | 110 | 2.0 | 4.0 | 0.00 | 0.77 | 0.00 | 91 | 1018.3 |
| 20260510143417 | 58 | 113 | 2.0 | 3.0 | 0.00 | 0.77 | 0.00 | 92 | 1018.3 |
| 20260510143101 | 57 | 98 | 2.0 | 3.0 | 0.00 | 0.77 | 0.00 | 91 | 1018.2 |
| 20260510142417 | 58 | 109 | 2.0 | 2.0 | 0.00 | 0.77 | 0.00 | 92 | 1018.4 |
| 20260510141546 | 57 | 98 | 1.0 | 4.0 | 0.00 | 0.77 | 0.00 | 91 | 1018.4 |
| 20260510141417 | 58 | 111 | 2.0 | 3.0 | 0.00 | 0.77 | 0.00 | 92 | 1018.5 |
| 20260510140417 | 57 | 110 | 2.0 | 3.0 | 0.00 | 0.77 | 0.00 | 93 | 1018.3 |
| 20260510140044 | 57 | 126 | 1.0 | 3.0 | 0.00 | 0.77 | 0.00 | 92 | 1018.3 |
| 20260510135417 | 58 | 108 | 2.0 | 3.0 | 0.00 | 0.77 | 0.00 | 93 | 1018.2 |
| 20260510134542 | 57 | 111 | 2.0 | 3.0 | 0.00 | 0.77 | 0.00 | 92 | 1018.3 |
| 20260510134417 | 57 | 106 | 2.0 | 3.0 | 0.00 | 0.77 | 0.00 | 92 | 1018.3 |
| 20260510133438 | 58 | 122 | 2.0 | 3.0 | 0.00 | 0.77 | 0.00 | 92 | 1018.3 |
| 20260510133042 | 57 | 124 | 2.0 | 4.0 | 0.00 | 0.77 | 0.00 | 92 | 1018.2 |
| 20260510132417 | 58 | 116 | 2.0 | 3.0 | 0.00 | 0.77 | 0.00 | 92 | 1018.3 |
| 20260510131542 | 57 | 94 | 2.0 | 3.0 | 0.00 | 0.77 | 0.00 | 92 | 1018.3 |
| 20260510131418 | 57 | 108 | 2.0 | 3.0 | 0.00 | 0.77 | 0.00 | 93 | 1018.3 |
| 20260510130416 | 57 | 105 | 3.0 | 3.0 | 0.00 | 0.77 | 0.00 | 94 | 1018.2 |
| 20260510130047 | 57 | 105 | 2.0 | 3.0 | 0.00 | 0.77 | 0.00 | 93 | 1018.2 |
| 20260510125417 | 57 | 104 | 2.0 | 3.0 | 0.00 | 0.77 | 0.00 | 93 | 1018.3 |
| 20260510124542 | 57 | 115 | 1.0 | 3.0 | 0.00 | 0.77 | 0.00 | 93 | 1018.3 |
| 20260510124417 | 57 | 113 | 2.0 | 2.0 | 0.00 | 0.77 | 0.00 | 94 | 1018.4 |
| 20260510123417 | 58 | 124 | 2.0 | 3.0 | 0.00 | 0.77 | 0.00 | 93 | 1018.5 |
| 20260510123042 | 57 | 101 | 2.0 | 3.0 | 0.00 | 0.77 | 0.00 | 93 | 1018.5 |
| 20260510122417 | 58 | 101 | 2.0 | 3.0 | 0.00 | 0.77 | 0.00 | 94 | 1018.7 |
| 20260510121541 | 57 | 98 | 2.0 | 3.0 | 0.00 | 0.77 | 0.00 | 93 | 1018.6 |
| 20260510121438 | 58 | 100 | 2.0 | 3.0 | 0.00 | 0.77 | 0.00 | 94 | 1018.6 |
| 20260510120417 | 58 | 94 | 2.0 | 3.0 | 0.00 | 0.77 | 0.00 | 94 | 1018.8 |
| 20260510120041 | 57 | 98 | 2.0 | 4.0 | 0.00 | 0.77 | 0.00 | 93 | 1018.6 |
| 20260510115438 | 58 | 100 | 2.0 | 3.0 | 0.00 | 0.77 | 0.00 | 95 | 1018.7 |
| 20260510114553 | 57 | 115 | 1.0 | 3.0 | 0.00 | 0.77 | 0.00 | 94 | 1018.6 |
| 20260510114416 | 58 | 114 | 2.0 | 3.0 | 0.00 | 0.77 | 0.00 | 95 | 1018.7 |
| 20260510113418 | 58 | 111 | 2.0 | 3.0 | 0.00 | 0.77 | 0.00 | 95 | 1019.0 |
| 20260510113044 | 58 | 107 | 1.0 | 3.0 | 0.00 | 0.77 | 0.00 | 94 | 1019.0 |
| 20260510112416 | 58 | 94 | 2.0 | 2.0 | 0.00 | 0.77 | 0.00 | 94 | 1019.0 |
| 20260510111818 | 58 | 106 | 2.0 | 3.0 | 0.00 | 0.77 | 0.00 | 95 | 1019.2 |
| 20260510111543 | 58 | 106 | 2.0 | 3.0 | 0.00 | 0.77 | 0.00 | 94 | 1019.2 |
| 20260510110817 | 58 | 96 | 2.0 | 3.0 | 0.00 | 0.77 | 0.00 | 94 | 1019.4 |
| 20260510110045 | 58 | 92 | 1.0 | 3.0 | 0.00 | 0.77 | 0.00 | 94 | 1019.2 |
| 20260510105817 | 58 | 98 | 2.0 | 2.0 | 0.00 | 0.77 | 0.00 | 94 | 1019.3 |
| 20260510104818 | 58 | 114 | 2.0 | 3.0 | 0.00 | 0.77 | 0.00 | 94 | 1019.4 |
| 20260510104541 | 58 | 113 | 2.0 | 3.0 | 0.00 | 0.77 | 0.00 | 94 | 1019.3 |
| 20260510103838 | 58 | 101 | 2.0 | 3.0 | 0.00 | 0.77 | 0.00 | 94 | 1019.3 |
| 20260510103049 | 58 | 104 | 1.0 | 3.0 | 0.00 | 0.77 | 0.00 | 94 | 1019.4 |
| 20260510102817 | 58 | 91 | 1.0 | 2.0 | 0.00 | 0.77 | 0.00 | 94 | 1019.4 |
| 20260510101817 | 58 | 113 | 1.0 | 2.0 | 0.00 | 0.77 | 0.00 | 95 | 1019.7 |
| 20260510101545 | 58 | 114 | 1.0 | 3.0 | 0.00 | 0.77 | 0.00 | 95 | 1019.7 |
| 20260510100817 | 59 | 102 | 2.0 | 3.0 | 0.00 | 0.77 | 0.00 | 95 | 1019.7 |
| 20260510100046 | 59 | 111 | 1.0 | 3.0 | 0.00 | 0.77 | 0.00 | 95 | 1019.8 |
| 20260510095818 | 60 | 95 | 2.0 | 2.0 | 0.00 | 0.77 | 0.77 | 95 | 1019.9 |
| 20260510094817 | 60 | 113 | 2.0 | 2.0 | 0.00 | 0.77 | 0.77 | 96 | 1019.9 |
| 20260510094547 | 59 | 113 | 0.0 | 2.0 | 0.00 | 0.77 | 0.77 | 96 | 1019.8 |
| 20260510093817 | 60 | 113 | 1.0 | 2.0 | 0.00 | 0.77 | 0.77 | 96 | 1020.1 |
| 20260510093043 | 59 | 111 | 2.0 | 3.0 | 0.00 | 0.77 | 0.77 | 95 | 1020.1 |
| 20260510092817 | 59 | 101 | 2.0 | 3.0 | 0.00 | 0.77 | 0.77 | 95 | 1020.2 |
| 20260510091817 | 59 | 146 | 1.0 | 2.0 | 0.00 | 0.77 | 0.77 | 95 | 1020.1 |
| 20260510091543 | 59 | 0 | 0.0 | 3.0 | 0.00 | 0.77 | 0.77 | 95 | 1020.1 |
| 20260510090817 | 59 | 105 | 1.0 | 3.0 | 0.00 | 0.77 | 0.77 | 95 | 1020.1 |
| 20260510090048 | 59 | 99 | 2.0 | 3.0 | 0.00 | 0.77 | 0.77 | 94 | 1020.2 |
| 20260510085817 | 59 | 104 | 2.0 | 3.0 | 0.00 | 0.77 | 0.77 | 95 | 1020.2 |
| 20260510084817 | 60 | 123 | 2.0 | 2.0 | 0.00 | 0.77 | 0.77 | 95 | 1020.2 |
| 20260510084543 | 59 | 111 | 1.0 | 3.0 | 0.00 | 0.77 | 0.77 | 94 | 1020.2 |
| 20260510083817 | 60 | 89 | 1.0 | 3.0 | 0.00 | 0.77 | 0.77 | 94 | 1020.1 |
| 20260510083052 | 60 | 105 | 1.0 | 2.0 | 0.00 | 0.77 | 0.77 | 94 | 1020.0 |
| 20260510082838 | 60 | 78 | 1.0 | 2.0 | 0.00 | 0.77 | 0.77 | 95 | 1020.1 |
| 20260510081817 | 60 | 139 | 1.0 | 3.0 | 0.00 | 0.77 | 0.77 | 96 | 1020.0 |
| 20260510081543 | 59 | 146 | 1.0 | 3.0 | 0.00 | 0.77 | 0.77 | 95 | 1020.1 |
| 20260510080817 | 60 | 110 | 2.0 | 3.0 | 0.00 | 0.77 | 0.77 | 95 | 1020.0 |
| 20260510080041 | 59 | 105 | 2.0 | 3.0 | 0.00 | 0.77 | 0.77 | 95 | 1020.0 |
| 20260510075817 | 60 | 96 | 2.0 | 3.0 | 0.00 | 0.77 | 0.77 | 96 | 1020.0 |
| 20260510074818 | 60 | 99 | 1.0 | 2.0 | 0.00 | 0.77 | 0.77 | 95 | 1019.8 |
| 20260510074548 | 59 | 95 | 2.0 | 3.0 | 0.00 | 0.77 | 0.77 | 95 | 1019.7 |
| 20260510073838 | 60 | 112 | 2.0 | 2.0 | 0.00 | 0.77 | 0.77 | 95 | 1019.7 |
| 20260510073051 | 60 | 100 | 1.0 | 3.0 | 0.00 | 0.77 | 0.77 | 94 | 1019.7 |
| 20260510072817 | 61 | 95 | 2.0 | 3.0 | 0.00 | 0.77 | 0.77 | 95 | 1019.8 |
| 20260510071818 | 61 | 125 | 2.0 | 3.0 | 0.00 | 0.77 | 0.77 | 95 | 1019.8 |
| 20260510071542 | 61 | 121 | 1.0 | 2.0 | 0.00 | 0.77 | 0.77 | 94 | 1019.8 |
| 20260510070817 | 61 | 76 | 2.0 | 2.0 | 0.00 | 0.77 | 0.77 | 95 | 1019.8 |
| 20260510070043 | 60 | 79 | 1.0 | 2.0 | 0.00 | 0.77 | 0.77 | 95 | 1019.7 |
| 20260510065817 | 61 | 108 | 2.0 | 2.0 | 0.00 | 0.77 | 0.77 | 95 | 1019.9 |
| 20260510064817 | 61 | 107 | 1.0 | 2.0 | 0.00 | 0.77 | 0.77 | 96 | 1019.7 |
| 20260510064542 | 61 | 87 | 0.0 | 2.0 | 0.00 | 0.77 | 0.77 | 95 | 1019.5 |
| 20260510063817 | 61 | 0.0 | 0.0 | 0.00 | 0.77 | 0.77 | 96 | 1019.4 | |
| 20260510063041 | 61 | 0 | 0.0 | 2.0 | 0.00 | 0.77 | 0.77 | 95 | 1019.2 |
| 20260510062817 | 62 | 0.0 | 0.0 | 0.00 | 0.77 | 0.77 | 96 | 1019.2 | |
| 20260510061818 | 62 | 100 | 1.0 | 2.0 | 0.00 | 0.77 | 0.77 | 96 | 1019.2 |
| 20260510061544 | 62 | 100 | 0.0 | 1.0 | 0.00 | 0.77 | 0.77 | 96 | 1019.2 |
| 20260510060818 | 62 | 100 | 0.0 | 1.0 | 0.00 | 0.77 | 0.77 | 96 | 1019.3 |
| 20260510060045 | 62 | 0 | 0.0 | 2.0 | 0.00 | 0.77 | 0.77 | 96 | 1019.2 |
| 20260510055817 | 62 | 100 | 0.0 | 1.0 | 0.00 | 0.77 | 0.77 | 96 | 1019.3 |
| 20260510054817 | 62 | 28 | 1.0 | 2.0 | 0.00 | 0.77 | 0.77 | 96 | 1019.2 |
| 20260510054542 | 61 | 0 | 0.0 | 2.0 | 0.00 | 0.77 | 0.77 | 96 | 1019.1 |
| 20260510053838 | 61 | 96 | 0.0 | 1.0 | 0.00 | 0.77 | 0.77 | 95 | 1019.0 |
| 20260510053041 | 61 | 96 | 1.0 | 3.0 | 0.00 | 0.77 | 0.77 | 94 | 1018.9 |
| 20260510052818 | 62 | 109 | 2.0 | 2.0 | 0.00 | 0.77 | 0.77 | 95 | 1018.9 |
| 20260510051838 | 62 | 117 | 1.0 | 1.0 | 0.00 | 0.77 | 0.77 | 94 | 1018.8 |
| 20260510051541 | 62 | 117 | 1.0 | 2.0 | 0.00 | 0.77 | 0.77 | 94 | 1018.7 |
| 20260510050817 | 63 | 5 | 1.0 | 2.0 | 0.00 | 0.77 | 0.77 | 94 | 1018.6 |
| 20260510050041 | 63 | 0 | 0.0 | 1.0 | 0.00 | 0.77 | 0.77 | 94 | 1018.6 |
| 20260510045817 | 64 | 0.0 | 0.0 | 0.00 | 0.77 | 0.77 | 94 | 1018.6 | |
| 20260510044838 | 64 | 0.0 | 0.0 | 0.00 | 0.77 | 0.77 | 94 | 1018.6 | |
| 20260510044550 | 64 | 0 | 0.0 | 1.0 | 0.00 | 0.77 | 0.77 | 93 | 1018.5 |
| 20260510043817 | 65 | 0.0 | 0.0 | 0.00 | 0.77 | 0.77 | 93 | 1018.4 | |
| 20260510043045 | 64 | 0 | 0.0 | 0.0 | 0.00 | 0.77 | 0.77 | 93 | 1018.3 |
| 20260510042817 | 65 | 0.0 | 0.0 | 0.00 | 0.77 | 0.77 | 93 | 1018.4 | |
| 20260510041817 | 65 | 0.0 | 0.0 | 0.00 | 0.77 | 0.77 | 93 | 1018.5 | |
| 20260510041543 | 65 | 0 | 0.0 | 1.0 | 0.00 | 0.77 | 0.77 | 92 | 1018.4 |
| 20260510040838 | 65 | 0.0 | 0.0 | 0.00 | 0.77 | 0.77 | 93 | 1018.2 | |
| 20260510040044 | 65 | 0 | 0.0 | 2.0 | 0.00 | 0.77 | 0.77 | 92 | 1018.2 |
| 20260510035817 | 65 | 0.0 | 0.0 | 0.00 | 0.77 | 0.77 | 92 | 1018.2 | |
| 20260510034817 | 65 | 0.0 | 0.0 | 0.00 | 0.77 | 0.77 | 91 | 1018.0 | |
| 20260510034542 | 64 | 0 | 0.0 | 2.0 | 0.00 | 0.77 | 0.77 | 91 | 1018.0 |
| 20260510033818 | 65 | 0.0 | 0.0 | 0.00 | 0.77 | 0.77 | 93 | 1017.9 | |
| 20260510033041 | 65 | 0 | 0.0 | 2.0 | 0.00 | 0.77 | 0.77 | 93 | 1017.9 |
| 20260510032817 | 65 | 290 | 1.0 | 2.0 | 0.00 | 0.77 | 0.77 | 93 | 1017.9 |
| 20260510031817 | 65 | 0.0 | 1.0 | 0.00 | 0.77 | 0.77 | 93 | 1017.7 | |
| 20260510031545 | 64 | 251 | 0.0 | 1.0 | 0.00 | 0.77 | 0.77 | 93 | 1017.6 |
| 20260510030817 | 65 | 0.0 | 0.0 | 0.00 | 0.77 | 0.77 | 93 | 1017.8 | |
| 20260510030052 | 64 | 0 | 0.0 | 0.0 | 0.00 | 0.77 | 0.77 | 93 | 1017.5 |
| 20260510025817 | 65 | 0.0 | 0.0 | 0.00 | 0.77 | 0.77 | 93 | 1017.8 | |
| 20260510024817 | 65 | 251 | 0.0 | 1.0 | 0.00 | 0.77 | 0.77 | 93 | 1017.7 |
| 20260510024544 | 64 | 0 | 0.0 | 1.0 | 0.00 | 0.77 | 0.77 | 92 | 1017.6 |
| 20260510023859 | 65 | 0.0 | 0.0 | 0.00 | 0.77 | 0.77 | 92 | 1017.7 | |
| 20260510023041 | 65 | 0 | 0.0 | 1.0 | 0.00 | 0.77 | 0.77 | 92 | 1017.6 |
| 20260510022817 | 65 | 0.0 | 0.0 | 0.00 | 0.77 | 0.77 | 93 | 1017.7 | |
| 20260510021838 | 65 | 249 | 0.0 | 1.0 | 0.00 | 0.77 | 0.77 | 93 | 1017.7 |
| 20260510021545 | 64 | 0 | 0.0 | 2.0 | 0.00 | 0.77 | 0.77 | 92 | 1017.7 |
| 20260510020817 | 65 | 0.0 | 1.0 | 0.00 | 0.77 | 0.77 | 93 | 1017.8 | |
| 20260510020044 | 64 | 0 | 0.0 | 2.0 | 0.00 | 0.77 | 0.77 | 92 | 1017.6 |
| 20260510015819 | 65 | 0.0 | 0.0 | 0.00 | 0.77 | 0.77 | 94 | 1017.7 | |
| 20260510014819 | 65 | 230 | 1.0 | 2.0 | 0.00 | 0.77 | 0.77 | 93 | 1017.7 |
| 20260510014542 | 64 | 224 | 1.0 | 3.0 | 0.00 | 0.77 | 0.77 | 92 | 1017.7 |
| 20260510013820 | 65 | 205 | 1.0 | 3.0 | 0.00 | 0.77 | 0.77 | 93 | 1017.8 |
| 20260510013041 | 64 | 0 | 0.0 | 2.0 | 0.00 | 0.77 | 0.77 | 92 | 1017.8 |
| 20260510012819 | 65 | 236 | 0.0 | 1.0 | 0.00 | 0.77 | 0.77 | 91 | 1017.8 |
| 20260510011820 | 65 | 0.0 | 0.0 | 0.01 | 0.77 | 0.77 | 92 | 1017.9 | |
| 20260510011546 | 64 | 0 | 0.0 | 2.0 | 0.01 | 0.77 | 0.77 | 93 | 1017.8 |
| 20260510010819 | 64 | 181 | 0.0 | 2.0 | 0.01 | 0.77 | 0.77 | 94 | 1018.0 |
| 20260510010039 | 64 | 233 | 0.0 | 3.0 | 0.02 | 0.77 | 0.77 | 95 | 1018.0 |
| 20260510005820 | 64 | 194 | 1.0 | 2.0 | 0.02 | 0.77 | 0.77 | 95 | 1018.0 |
| 20260510004819 | 64 | 210 | 2.0 | 2.0 | 0.02 | 0.77 | 0.77 | 94 | 1018.2 |
| 20260510004549 | 63 | 234 | 1.0 | 3.0 | 0.02 | 0.77 | 0.77 | 93 | 1018.1 |
| 20260510003819 | 64 | 227 | 1.0 | 2.0 | 0.02 | 0.77 | 0.77 | 95 | 1018.3 |
| 20260510003043 | 63 | 209 | 0.0 | 2.0 | 0.03 | 0.77 | 0.77 | 94 | 1018.4 |
| 20260510002820 | 63 | 152 | 1.0 | 2.0 | 0.04 | 0.77 | 0.77 | 94 | 1018.5 |
| 20260510001819 | 63 | 0.0 | 0.0 | 0.08 | 0.76 | 0.76 | 94 | 1018.5 | |
| 20260510001541 | 63 | 0 | 0.0 | 2.0 | 0.10 | 0.76 | 0.76 | 94 | 1018.5 |
| 20260510001019 | 63 | 186 | 1.0 | 2.0 | 0.17 | 0.76 | 0.76 | 94 | 1018.6 |
| 20260510000043 | 62 | 0 | 0.0 | 2.0 | 0.36 | 0.75 | 0.75 | 94 | 1018.7 |
| 20260510000040 | 63 | 138 | 0.0 | 1.0 | 0.37 | 0.75 | 0.75 | 94 | 1018.8 |
| 20260509235019 | 63 | 0.0 | 0.0 | 0.44 | 0.75 | 0.75 | 96 | 1018.8 | |
| 20260509234542 | 62 | 0 | 0.0 | 4.0 | 0.47 | 0.75 | 0.75 | 95 | 1018.9 |
| 20260509234020 | 62 | 69 | 1.0 | 4.0 | 0.49 | 0.75 | 0.75 | 96 | 1019.0 |
| 20260509233046 | 61 | 140 | 0.0 | 3.0 | 0.49 | 0.74 | 0.74 | 95 | 1019.0 |
| 20260509233019 | 62 | 117 | 1.0 | 3.0 | 0.49 | 0.73 | 0.73 | 95 | 1019.1 |
| 20260509232019 | 62 | 118 | 2.0 | 3.0 | 0.46 | 0.69 | 0.69 | 95 | 1019.2 |
| 20260509231544 | 62 | 134 | 1.0 | 6.0 | 0.44 | 0.66 | 0.66 | 94 | 1019.3 |
| 20260509231041 | 63 | 285 | 1.0 | 4.0 | 0.45 | 0.59 | 0.59 | 95 | 1019.3 |
| 20260509230042 | 63 | 0 | 0.0 | 2.0 | 0.29 | 0.38 | 0.38 | 97 | 1019.2 |
| 20260509230019 | 64 | 224 | 0.0 | 2.0 | 0.30 | 0.38 | 0.38 | 97 | 1019.2 |
| 20260509225019 | 64 | 351 | 1.0 | 2.0 | 0.31 | 0.31 | 0.31 | 97 | 1019.2 |
| 20260509224542 | 64 | 0 | 0.0 | 4.0 | 0.27 | 0.27 | 0.27 | 96 | 1019.2 |
| 20260509224017 | 64 | 208 | 2.0 | 4.0 | 0.26 | 0.26 | 0.26 | 97 | 1019.3 |
| 20260509223041 | 64 | 352 | 2.0 | 5.0 | 0.25 | 0.25 | 0.25 | 96 | 1019.2 |
| 20260509223017 | 64 | 288 | 0.0 | 5.0 | 0.24 | 0.24 | 0.24 | 96 | 1019.2 |
| 20260509222038 | 64 | 308 | 1.0 | 3.0 | 0.23 | 0.23 | 0.23 | 96 | 1019.4 |
| 20260509221545 | 64 | 5 | 2.0 | 5.0 | 0.21 | 0.21 | 0.21 | 95 | 1019.4 |